Regional Weather Roundup
Issued by NWS

Home | Current Version | Previous Version | Graphics & Text | Print | Product List | Glossary On
Versions: 1 2 3 4 5 6 7 8 9 10 11 12 13 14 15 16 17 18 19 20 21 22 23 24 25 26 27 28 29 30 31 32 33 34 35 36 37 38 39 40 41 42 43 44 45 46 47 48 49 50
000
ASUS43 KOAX 220210
RWRNE

WEATHER ROUNDUP FOR NEBRASKA
NATIONAL WEATHER SERVICE OMAHA NE
900 PM CDT TUE OCT 21 2014

NOTES: SATELLITE DATA IS BEING USED TO AUGMENT CLOUD COVER ABOVE
       12000 FEET.
       "FAIR" INDICATES FEW OR NO CLOUDS BELOW 12,000 FEET WITH NO
       SIGNIFICANT WEATHER AND/OR OBSTRUCTIONS TO VISIBILITY.

  * THESE STATIONS DO NOT REPORT WEATHER SUCH AS RAIN...SNOW OR FOG.

NEZ001>004-019>022-054>056-220300-
NEBRASKA PANHANDLE

CITY           SKY/WX    TMP DP  RH WIND       PRES   REMARKS
SCOTTSBLUFF    MOCLDY    57  44  62 NE6       29.85F
ALLIANCE       MOCLDY    55  45  68 W9        29.87R
CHADRON        LGT RAIN  71  43  36 SW10G17   29.81S
KIMBALL        PTCLDY    60  42  52 CALM      29.91R
SIDNEY         PTCLDY    57  40  52 S9        29.90R
$$

NEZ057>060-069>072-079>082-220300-
SOUTHWEST NEBRASKA

CITY           SKY/WX    TMP DP  RH WIND       PRES   REMARKS
NORTH PLATTE   CLEAR     63  53  70 E9        29.90S
IMPERIAL       PTCLDY    65  49  56 SE10      29.90R
LEXINGTON      CLEAR     67  58  74 SE14      29.93S
MCCOOK         PTCLDY    68  54  60 SE15      29.92R
OGALLALA       CLEAR     68  53  58 SE12G17   29.88R
$$

NEZ005>010-023>029-035>040-094-220300-
NORTH CENTRAL NEBRASKA

CITY           SKY/WX    TMP DP  RH WIND       PRES   REMARKS
VALENTINE      CLEAR     67  54  63 S15       29.85S
AINSWORTH      PTCLDY    65  52  62 SE13      29.89S
BROKEN BOW     CLEAR     64  53  67 SE12      29.94R
O`NEILL        CLEAR     65  40  40 SE14      29.95R
ORD            CLEAR     65  51  60 SE12      29.94R
THEDFORD       PTCLDY    66  56  70 SE15      29.90R
$$

NEZ041-046>049-061>064-073>077-083>087-220300-
SOUTH CENTRAL NEBRASKA

CITY           SKY/WX    TMP DP  RH WIND       PRES   REMARKS
GRAND ISLAND   CLEAR     65  49  56 SE10      29.98S
AURORA         CLEAR     62  40  45 SE9       29.99S HAZE
HASTINGS       CLEAR     64  49  57 SE12      29.98S
HEBRON         CLEAR     61  46  58 SE7       30.01R
HOLDREGE       CLEAR     65  55  70 SE13      29.95F
KEARNEY *      CLEAR     64  52  63 SE16      29.97S
YORK           CLEAR     63  41  45 SE14      30.01R
$$

NEZ011>018-030>034-042>045-220300-
NORTHEAST NEBRASKA

CITY           SKY/WX    TMP DP  RH WIND       PRES   REMARKS
NORFOLK        CLEAR     62  42  47 SE13      30.00R
ALBION         CLEAR     60  41  48 SE7       29.99R
BLAIR          CLEAR     61  40  45 SE9       30.05S
COLUMBUS *     CLEAR     63  39  42 SE10      30.02S
FREMONT        CLEAR     61  39  44 SE8       30.04R
TEKAMAH        CLEAR     55  40  56 S7        30.04R
WAYNE          CLEAR     62  41  47 SE13      30.02R
$$

NEZ050>053-065>068-078-088>093-220300-
SOUTHEAST NEBRASKA

CITY           SKY/WX    TMP DP  RH WIND       PRES   REMARKS
LINCOLN        CLEAR     63  40  42 SE10      30.04S
OMAHA EPPLEY   CLEAR     61  39  44 SE13      30.06R
BEATRICE       CLEAR     60  42  50 SE7       30.03S
FALLS CITY     CLEAR     56  40  55 SE8       30.06R
NEBRASKA CITY  CLEAR     58  34  40 SE7       30.07R
PLATTSMOUTH    CLEAR     58  37  45 SE7       30.06R
$$

NEZ044-045-051>053-067-220300-
OMAHA AREA

CITY           SKY/WX    TMP DP  RH WIND       PRES   REMARKS
OMAHA EPPLEY   CLEAR     61  39  44 SE13      30.06R
BLAIR          CLEAR     61  40  45 SE9       30.05S
FREMONT        CLEAR     61  39  44 SE8       30.04R
MILLARD        CLEAR     60  40  48 SE7       30.05R
OFFUTT AFB     CLEAR     54  43  65 SE6       30.05R
PLATTSMOUTH    CLEAR     58  37  45 SE7       30.06R
WAHOO          FAIR      56  39  54 SE8       30.04S
$$



USA.gov is the U.S. government's official web portal to all federal, state and local government web resources and services.